Wind_Speed
85 81 78 80 81 79 79 79 75 74 78 71 67 65 67 67 67 62 61 58 59 57 57 58 59 59 56 49 47 45 48 47 42 41 40 41 41 42 37 40 39 31 32 34
91 86 86 86 87 85 85 83 82 81 84 81 76 70 69 68 69 70 68 67 66 64 64 63 62 62 59 53 51 50 52 52 51 51 44 41 44 48 46 43 43 42 36 35
100 89 94 95 92 93 92 87 90 90 91 89 83 69 68 67 74 75 72 70 72 67 64 61 61 62 61 60 54 53 56 60 59 54 54 51 49 48 50 48 46 46 45 41
109 97 99 102 95 102 101 95 99 96 98 93 92 81 74 72 75 79 79 77 77 72 69 64 64 63 62 61 65 58 60 65 66 64 59 56 60 59 56 51 52 47 45 45
108 106 107 108 99 104 104 102 107 105 103 102 84 99 75 77 78 86 86 84 79 75 72 69 67 64 65 65 64 66 56 54 65 64 63 62 62 62 62 55 55 49 49 49
119 116 113 113 110 108 111 107 112 111 108 109 86 100 83 79 84 84 83 88 79 71 68 71 72 70 68 66 68 70 70 62 62 65 60 63 63 60 59 57 56 52 54 56
126 120 119 111 112 110 113 114 115 118 112 107 96 105 89 83 87 86 87 89 83 77 71 69 73 74 72 71 70 69 68 68 60 61 61 63 59 59 58 56 52 53 54 55
128 121 111 109 114 118 119 116 115 113 111 104 102 94 82 83 85 88 88 86 89 83 75 71 71 73 75 75 74 69 67 65 64 60 62 62 61 59 57 53 54 55 58 57
111 105 103 94 99 106 100 104 103 109 103 99 85 79 81 73 78 80 85 89 88 87 82 78 74 70 77 74 71 68 66 68 65 66 65 62 61 59 60 60 61 61 60 62
120 110 94 96 93 91 93 88 91 96 98 95 89 78 66 68 75 80 79 81 84 84 85 82 75 68 73 76 71 71 70 68 67 67 66 65 64 63 63 64 65 66 64 64
117 115 95 95 97 94 93 94 91 91 93 92 88 83 60 61 64 76 77 78 82 82 84 78 69 67 69 76 73 70 69 69 68 67 66 68 68 66 66 66 67 66 66 66
107 108 103 102 98 104 99 98 96 95 89 88 87 81 56 63 65 72 78 83 86 85 85 85 72 70 72 73 69 68 66 65 67 68 68 68 69 68 68 66 66 69 69 70
101 102 96 91 99 108 110 102 97 97 95 87 82 64 63 59 61 66 73 80 84 84 82 82 75 74 72 72 70 71 67 65 66 66 68 69 69 68 66 65 68 70 70 72
99 95 94 88 91 99 107 106 105 101 94 91 95 75 53 60 57 60 66 74 82 80 79 75 78 74 71 75 74 73 68 67 70 70 70 69 69 69 68 67 69 71 72 73
95 96 95 89 87 92 94 97 96 101 93 87 77 88 67 61 60 57 67 75 81 79 75 65 67 73 77 75 71 69 66 68 69 70 72 71 70 71 72 69 72 73 76 77
91 90 89 83 91 92 88 83 90 94 91 93 87 74 61 73 67 62 67 73 75 74 70 68 69 73 70 69 70 67 69 71 73 75 74 73 71 73 70 72 74 77 75 78
87 91 90 80 88 89 83 76 86 89 96 95 88 74 66 68 69 70 74 75 77 69 62 65 65 59 61 66 67 67 68 72 73 74 75 75 72 72 71 74 75 75 78 78
88 91 90 86 89 84 73 80 83 86 86 89 85 72 73 70 72 81 84 76 72 66 66 63 53 53 55 58 62 65 68 70 71 71 74 74 73 74 74 75 76 72 75 74
88 90 89 88 86 80 72 72 80 90 76 82 79 76 72 70 70 69 76 69 71 71 64 50 52 50 65 68 61 62 63 64 65 66 68 65 68 71 70 72 71 71 74 71
88 86 88 89 83 75 70 75 80 90 60 78 79 77 75 75 72 65 72 62 65 69 66 54 48 54 64 66 66 64 61 60 61 61 62 63 64 66 67 67 72 72 69 69
83 83 85 85 82 70 70 74 84 83 59 76 76 74 74 75 76 69 69 60 62 61 61 53 45 58 69 70 69 62 62 62 61 61 61 63 63 64 67 70 68 69 70 74
75 79 78 76 68 56 67 70 82 78 72 72 66 69 70 68 68 67 66 56 61 61 58 61 61 66 74 76 65 62 60 61 62 59 61 61 63 66 69 69 72 73 75 77
62 74 72 70 59 48 55 55 74 81 75 75 67 64 64 62 59 58 36 55 55 60 61 64 66 67 72 76 69 63 63 61 59 63 64 66 66 68 70 73 74 75 75 73
59 64 66 60 54 43 44 59 77 83 76 74 61 61 58 54 50 50 52 59 60 59 65 65 66 68 69 75 64 64 63 63 65 65 66 66 68 70 72 74 76 75 75 77
51 59 58 44 44 44 47 59 68 70 68 63 56 57 50 50 40 41 47 48 47 48 59 66 64 66 67 72 69 66 65 64 67 70 69 70 72 73 74 75 74 77 80 84
52 43 40 34 39 37 46 58 61 67 64 58 60 55 45 37 42 48 46 46 43 45 50 56 61 68 68 68 69 68 66 68 71 71 73 73 74 74 75 77 80 82 87 91
Wind_Direction
274 274 278 277 278 277 277 279 279 284 281 278 277 280 285 287 288 290 292 289 288 288 293 297 298 299 303 303 305 305 307 314 315 317 315 312 316 308 307 307 306 303 300 306
272 275 275 275 276 278 279 278 278 282 282 278 277 278 279 284 286 288 291 292 287 285 286 292 294 295 296 298 301 302 305 306 306 310 310 308 311 310 302 304 302 298 297 297
270 274 275 275 276 278 278 279 276 277 278 281 278 278 282 281 286 286 288 289 288 285 286 286 289 292 295 296 297 298 301 303 302 305 309 306 307 306 308 302 302 295 293 294
271 273 274 273 274 274 274 276 275 276 276 276 281 280 280 281 281 285 284 282 286 286 286 284 286 289 290 292 294 294 297 298 299 301 302 302 302 305 306 305 305 297 292 294
272 275 276 272 273 271 274 274 276 275 276 275 277 280 275 281 282 280 280 279 281 283 285 285 284 283 286 289 291 296 297 302 301 303 301 299 300 300 301 302 302 296 292 292
273 273 272 270 271 271 273 273 274 274 273 273 278 277 273 280 277 280 280 281 279 278 279 282 281 281 283 286 288 291 294 295 295 299 296 297 298 298 296 296 296 290 288 289
271 270 272 272 272 273 275 274 274 273 274 273 274 271 278 276 276 275 277 279 277 274 274 272 276 279 281 284 286 287 290 291 291 292 295 296 294 293 294 295 294 291 288 287
268 269 269 269 269 271 271 272 272 273 274 278 271 272 276 272 273 274 275 274 276 274 274 274 275 276 279 281 285 286 287 289 290 288 290 292 294 295 296 292 291 287 285 285
265 265 267 266 267 267 267 270 271 272 271 269 267 267 268 270 271 271 271 273 274 273 271 273 274 276 280 280 280 280 281 283 283 284 286 288 288 290 289 289 289 287 285 283
272 263 261 266 261 266 268 267 266 268 269 269 268 265 268 268 267 266 265 270 272 273 271 269 269 273 275 276 276 276 278 279 280 281 284 285 287 289 289 291 289 287 283 283
270 272 264 260 270 266 266 266 265 266 267 270 270 268 263 258 261 265 265 265 267 270 272 270 267 268 270 273 274 275 276 276 277 278 279 282 285 286 286 285 287 286 287 287
266 267 268 269 267 268 265 262 266 265 263 265 269 267 262 257 255 260 266 267 268 266 267 268 266 268 269 267 270 276 276 276 276 276 278 282 283 283 285 285 286 288 288 289
264 264 263 261 259 264 267 268 268 270 271 272 275 271 272 262 259 260 262 266 266 267 270 272 269 268 267 271 272 273 272 274 274 276 276 278 280 281 284 287 286 288 290 290
263 262 262 258 255 254 257 260 265 267 267 269 271 270 266 262 254 253 255 260 264 264 267 272 272 274 271 269 269 271 269 272 274 275 277 277 278 281 283 286 286 288 292 291
265 262 261 259 258 255 254 254 258 262 263 260 263 269 265 265 258 250 252 255 257 259 263 259 268 276 279 275 273 271 270 270 273 275 277 278 279 282 284 286 287 289 291 292
267 265 262 261 259 257 254 255 254 256 259 261 258 260 264 264 262 260 256 256 260 260 262 265 267 271 276 277 277 275 270 271 273 274 277 279 279 282 285 286 288 289 290 289
265 266 264 259 257 258 257 251 253 253 253 255 256 255 249 254 255 255 258 255 254 260 258 261 265 272 275 274 272 272 273 273 275 276 277 280 281 283 284 285 285 286 287 286
265 263 262 260 258 259 256 251 250 251 251 253 255 248 245 245 247 255 258 258 261 262 258 260 270 271 274 273 270 269 268 270 272 275 277 279 280 280 281 281 282 283 283 283
265 266 265 262 259 258 257 251 249 248 245 252 251 248 245 245 246 250 257 263 263 267 269 270 266 267 270 273 271 272 274 275 278 277 276 277 277 276 277 278 279 280 282 285
264 264 265 264 263 254 248 247 250 251 241 244 242 245 244 243 244 244 249 249 255 263 270 268 253 251 260 262 269 272 274 277 278 278 278 276 275 275 276 282 284 285 288 290
265 264 264 264 261 257 248 240 249 252 235 240 243 244 243 242 244 244 249 252 252 254 258 258 252 261 264 263 268 275 277 277 276 277 277 276 277 279 284 288 289 290 290 291
264 265 265 265 266 262 252 241 245 249 244 241 239 242 240 242 244 246 247 248 250 253 254 253 245 248 255 265 273 275 276 274 275 277 279 280 281 285 288 289 289 289 290 291
261 264 265 268 269 264 252 240 241 241 236 234 230 232 237 238 239 243 245 256 252 253 254 253 254 258 261 270 272 273 274 274 277 280 282 282 284 287 289 289 290 292 292 291
268 266 266 265 263 255 238 230 231 233 227 230 227 225 227 231 235 237 239 245 248 250 246 256 254 254 258 264 266 271 274 276 278 279 281 285 287 290 291 291 291 292 293 296
273 266 264 264 256 245 231 229 229 230 227 224 220 221 218 217 204 221 234 254 258 253 255 252 254 259 263 266 271 272 274 276 280 281 284 287 288 289 289 290 293 296 298 299
264 264 269 259 249 236 226 224 223 222 219 212 212 211 209 200 215 223 238 254 248 251 248 249 253 257 261 265 269 270 272 277 281 283 285 287 288 289 291 295 297 298 298 299
Height
10822 10831 10840 10833 10830 10835 10835 10833 10838 10835 10831 10842 10849 10853 10846 10844 10845 10845 10846 10846 10842 10842 10839 10840 10838 10838 10836 10836 10834 10833 10830 10825 10822 10817 10812 10807 10802 10799 10794 10789 10786 10783 10780 10773
10807 10823 10820 10814 10814 10816 10818 10821 10822 10821 10811 10817 10828 10840 10842 10831 10833 10832 10835 10833 10832 10831 10830 10829 10826 10825 10824 10827 10826 10823 10818 10815 10812 10810 10807 10803 10799 10793 10789 10784 10779 10775 10771 10768
10784 10815 10801 10799 10802 10799 10797 10806 10797 10798 10793 10795 10807 10830 10829 10831 10821 10820 10824 10820 10817 10821 10819 10819 10814 10813 10810 10807 10816 10814 10809 10803 10800 10799 10796 10793 10790 10786 10780 10776 10772 10766 10763 10760
10760 10795 10785 10776 10793 10773 10773 10780 10767 10776 10774 10788 10785 10807 10816 10817 10811 10803 10806 10806 10805 10809 10806 10808 10803 10799 10797 10794 10788 10803 10802 10792 10785 10783 10782 10780 10776 10772 10769 10766 10760 10754 10752 10749
10764 10762 10759 10752 10768 10751 10752 10759 10747 10751 10753 10754 10797 10763 10811 10803 10800 10785 10783 10788 10795 10795 10794 10791 10790 10788 10783 10780 10777 10771 10786 10785 10772 10770 10767 10766 10763 10760 10755 10752 10748 10743 10739 10736
10721 10729 10723 10726 10735 10739 10730 10742 10729 10726 10730 10727 10784 10750 10787 10791 10779 10773 10766 10756 10777 10787 10786 10777 10769 10771 10770 10768 10764 10761 10757 10773 10765 10757 10754 10752 10748 10744 10741 10739 10735 10732 10728 10724
10677 10691 10701 10710 10708 10716 10713 10707 10704 10695 10706 10717 10748 10721 10761 10774 10757 10752 10753 10743 10750 10759 10768 10768 10762 10755 10755 10753 10751 10748 10745 10743 10752 10747 10741 10737 10735 10730 10727 10724 10720 10716 10713 10709
10653 10665 10683 10692 10682 10684 10679 10680 10675 10681 10684 10696 10708 10722 10744 10741 10739 10734 10729 10729 10722 10731 10743 10747 10750 10745 10739 10738 10736 10735 10730 10726 10727 10730 10729 10724 10718 10715 10711 10707 10704 10699 10695 10692
10626 10644 10647 10668 10658 10645 10659 10663 10659 10642 10655 10657 10686 10705 10708 10724 10716 10713 10710 10702 10704 10706 10716 10725 10729 10733 10718 10718 10720 10721 10716 10715 10712 10710 10710 10708 10705 10700 10695 10692 10688 10683 10677 10674
10575 10606 10635 10628 10633 10637 10629 10640 10634 10626 10622 10629 10652 10678 10702 10702 10696 10686 10689 10684 10678 10680 10684 10698 10710 10718 10705 10695 10701 10704 10703 10700 10697 10694 10690 10687 10685 10682 10678 10674 10668 10664 10659 10656
10556 10558 10604 10608 10603 10606 10604 10594 10608 10610 10602 10609 10620 10639 10685 10682 10674 10659 10663 10664 10659 10657 10655 10669 10687 10692 10686 10674 10682 10685 10685 10684 10682 10679 10675 10671 10668 10665 10661 10657 10652 10644 10641 10638
10534 10541 10561 10572 10582 10565 10571 10571 10577 10577 10586 10587 10596 10615 10656 10656 10657 10646 10643 10641 10640 10639 10634 10639 10667 10669 10665 10661 10667 10666 10667 10666 10663 10660 10657 10653 10650 10645 10641 10638 10633 10627 10624 10620
10508 10511 10532 10550 10549 10540 10538 10547 10559 10557 10558 10576 10572 10614 10620 10637 10639 10636 10629 10620 10613 10615 10622 10626 10639 10644 10647 10643 10645 10648 10648 10647 10644 10642 10639 10635 10632 10628 10624 10620 10613 10609 10606 10600
10472 10485 10495 10515 10519 10513 10515 10528 10529 10535 10538 10549 10550 10577 10608 10604 10614 10614 10612 10603 10591 10601 10605 10609 10613 10614 10626 10625 10626 10628 10629 10627 10623 10621 10619 10617 10614 10609 10605 10601 10594 10590 10585 10578
10443 10458 10464 10484 10489 10489 10500 10514 10511 10506 10521 10519 10544 10537 10586 10581 10583 10587 10583 10577 10576 10586 10592 10606 10598 10593 10602 10607 10609 10609 10608 10607 10604 10599 10597 10597 10594 10590 10587 10581 10573 10570 10564 10560
10417 10432 10442 10464 10449 10460 10481 10497 10492 10491 10493 10492 10509 10525 10548 10553 10555 10563 10564 10563 10561 10566 10578 10581 10585 10586 10588 10588 10587 10586 10587 10585 10584 10580 10578 10576 10575 10570 10567 10560 10555 10550 10546 10541
10403 10402 10412 10439 10421 10430 10458 10475 10463 10466 10463 10467 10485 10517 10511 10521 10525 10528 10533 10532 10539 10547 10557 10559 10567 10575 10568 10566 10567 10567 10564 10563 10563 10562 10557 10556 10556 10550 10546 10542 10537 10531 10527 10522
10381 10377 10385 10400 10395 10414 10444 10433 10438 10438 10446 10446 10471 10483 10481 10484 10489 10499 10503 10515 10531 10532 10532 10541 10548 10548 10547 10548 10548 10546 10544 10544 10544 10543 10538 10538 10535 10530 10527 10523 10518 10513 10507 10502
10354 10356 10359 10362 10375 10394 10415 10413 10408 10400 10439 10433 10451 10458 10464 10469 10476 10488 10484 10502 10503 10509 10521 10533 10535 10533 10528 10530 10531 10529 10527 10527 10526 10522 10519 10518 10515 10511 10507 10503 10498 10493 10487 10484
10328 10335 10332 10332 10342 10365 10387 10382 10383 10370 10436 10404 10414 10431 10444 10451 10457 10474 10465 10487 10489 10492 10501 10513 10516 10515 10510 10511 10512 10514 10515 10512 10509 10504 10501 10499 10494 10491 10487 10482 10478 10473 10468 10463
10303 10306 10304 10303 10310 10337 10358 10359 10352 10357 10410 10387 10403 10416 10425 10433 10443 10457 10457 10470 10474 10481 10484 10495 10497 10494 10490 10490 10495 10500 10498 10494 10491 10488 10484 10479 10475 10471 10467 10463 10458 10454 10449 10444
10277 10274 10279 10279 10290 10321 10318 10334 10328 10343 10367 10377 10396 10397 10406 10420 10428 10437 10445 10457 10458 10458 10466 10470 10477 10477 10472 10472 10480 10480 10480 10476 10473 10471 10464 10460 10457 10454 10449 10445 10441 10435 10429 10424
10265 10251 10260 10262 10274 10292 10298 10312 10305 10307 10336 10348 10366 10378 10391 10402 10413 10422 10434 10441 10450 10449 10448 10452 10457 10459 10461 10461 10462 10462 10460 10459 10456 10450 10446 10442 10440 10435 10431 10426 10420 10414 10409 10403
10248 10242 10239 10249 10254 10266 10275 10270 10263 10273 10308 10327 10350 10360 10372 10387 10397 10406 10413 10422 10426 10428 10431 10437 10441 10442 10444 10441 10444 10444 10443 10440 10435 10434 10429 10425 10422 10417 10411 10405 10399 10393 10386 10380
10231 10220 10220 10235 10238 10242 10249 10249 10255 10272 10295 10316 10337 10346 10359 10369 10382 10388 10404 10404 10407 10414 10416 10417 10422 10423 10424 10423 10425 10426 10425 10423 10419 10414 10412 10408 10403 10397 10391 10385 10378 10372 10364 10357
10198 10211 10214 10221 10220 10228 10228 10230 10244 10257 10280 10307 10318 10334 10348 10365 10377 10383 10386 10390 10393 10396 10400 10403 10405 10405 10409 10410 10410 10409 10409 10408 10402 10398 10393 10389 10384 10377 10370 10364 10356 10349 10341 10331